Lexington Weather

Lexington, Massachusetts, USA

48°F
12/8/2022 3:06pm 
  • Lexington Conditions: Clear
  • Temperature: 48.4°F / 9.1°CColder 1.2°F than last hour.
  • Dew Point: 35.6°FIncreased 0.2°Fsince last hour.
  • Relative Humidity: 61%Increased 3.0% since last hour.
  • Wind: Wind from W W 1 mph, 10-min avg: 1 mph, gust: 8 mph
  • Barometer: 30.09 inRising 0.03  inHg/hr Rising Slowly
  • Visibility: 10 miles
  • Rain Today: 0.00 in
  •   

Warning: Undefined variable $rc in /homepages/6/d276339138/htdocs/weather/20190804/ssi/nwsProduct.php on line 323

Warning: Undefined variable $rc in /homepages/6/d276339138/htdocs/weather/20190804/ssi/nwsProduct.php on line 325

Warning: Undefined variable $rc in /homepages/6/d276339138/htdocs/weather/20190804/ssi/nwsProduct.php on line 323

Warning: Undefined variable $rc in /homepages/6/d276339138/htdocs/weather/20190804/ssi/nwsProduct.php on line 325

Warning: Undefined variable $rc in /homepages/6/d276339138/htdocs/weather/20190804/ssi/nwsProduct.php on line 323

Warning: Undefined variable $rc in /homepages/6/d276339138/htdocs/weather/20190804/ssi/nwsProduct.php on line 325

Warning: Undefined variable $rc in /homepages/6/d276339138/htdocs/weather/20190804/ssi/nwsProduct.php on line 323

Warning: Undefined variable $rc in /homepages/6/d276339138/htdocs/weather/20190804/ssi/nwsProduct.php on line 325

Warning: Undefined variable $rc in /homepages/6/d276339138/htdocs/weather/20190804/ssi/nwsProduct.php on line 323

Warning: Undefined variable $rc in /homepages/6/d276339138/htdocs/weather/20190804/ssi/nwsProduct.php on line 325

Warning: Undefined variable $rc in /homepages/6/d276339138/htdocs/weather/20190804/ssi/nwsProduct.php on line 323

Warning: Undefined variable $rc in /homepages/6/d276339138/htdocs/weather/20190804/ssi/nwsProduct.php on line 325

Warning: Undefined variable $rc in /homepages/6/d276339138/htdocs/weather/20190804/ssi/nwsProduct.php on line 323

Warning: Undefined variable $rc in /homepages/6/d276339138/htdocs/weather/20190804/ssi/nwsProduct.php on line 325

Regional Weather Roundup
for Boston, MA

        
000
ASUS41 KBOX 030610
RWRBOX

REGIONAL WEATHER ROUNDUP
NATIONAL WEATHER SERVICE BOSTON/NORTON MA
100 AM EST SAT DEC 03 2022

NOTE:  "FAIR" INDICATES FEW OR NO CLOUDS BELOW 12,000 FEET WITH NO 
SIGNIFICANT WEATHER AND/OR OBSTRUCTIONS TO VISIBILITY.

MAZALL-030700-
EASTERN MASSACHUSETTS
  
CITY           SKY/WX    TMP DP  RH WIND       PRES   REMARKS
BOSTON         CLOUDY    40  33  76 S3        30.43F                  
6HR MIN TEMP:  38; 6HR MAX TEMP:  41;                                

BEVERLY        MOCLDY    40  33  76 S7        30.41F                  
LAWRENCE       MOCLDY    41  32  70 VRB6      30.42F                  
BEDFORD        PTCLDY    39  31  72 S8        30.40F                  
NORWOOD        PTCLDY    36  31  82 CALM      30.43S                  
MARSHFIELD       N/A     36  32  87 CALM      30.43F                  
PLYMOUTH       CLEAR     33  30  88 SE5       30.41F WCI  29          
TAUNTON          N/A    N/A N/A N/A MISG      30.43S                  
NEW BEDFORD    CLEAR     44  39  82 S6        30.42F                  
$$

MAZALL-030700-
CAPE COD AND THE ISLANDS
  
CITY           SKY/WX    TMP DP  RH WIND       PRES   REMARKS
FALMOUTH       NOT AVBL                                               
HYANNIS        CLEAR     46  41  82 S6        30.43S                  
CHATHAM        MOCLDY    48  41  76 S5        30.45S                  
PROVINCETOWN   PTCLDY    47  41  80 S12       30.44F                  
NANTUCKET      CLEAR     50  45  83 S10       30.45F                  
MARTHAS VNYRD  MOCLDY    50  43  77 SW9       30.44S                  
$$
 
MAZALL-030700-
CENTRAL AND WESTERN MASSACHUSETTS
  
CITY           SKY/WX    TMP DP  RH WIND       PRES   REMARKS
WORCESTER      MOCLDY    38  31  76 SW14G21   30.36F WCI  30          
6HR MIN TEMP:  36; 6HR MAX TEMP:  38;                                

FITCHBURG      MOCLDY    35  27  72 SE5       30.39F WCI  31          
ORANGE         CLOUDY    39  30  70 S10       30.37F                  
SPRINGFIELD    CLOUDY    36  30  79 S5        30.35F                  
WESTFIELD      CLOUDY    37  29  72 S7        30.37F WCI  32          
NORTH ADAMS    LGT RAIN  40  23  50 E13G20    30.29F                  
PITTSFIELD     CLOUDY    37  23  56 S12G17    30.27F WCI  29          
$$
 
RIZALL-030700-
RHODE ISLAND
  
CITY           SKY/WX    TMP DP  RH WIND       PRES   REMARKS
PROVIDENCE     PTCLDY    37  33  85 CALM      30.43S                  
6HR MIN TEMP:  36; 6HR MAX TEMP:  40;                                

NEWPORT        CLEAR     46  37  71 S9        30.43S                  
BLOCK ISLAND   PTCLDY    48  39  71 SW15      30.43F                  
SMITHFIELD     PTCLDY    37  34  89 CALM      30.41S                  
WESTERLY       PTCLDY    47  38  71 S9        30.42F                  
$$
 
CTZALL-030700-
CONNECTICUT
  
CITY           SKY/WX    TMP DP  RH WIND       PRES   REMARKS
BRADLEY INTL   CLOUDY    38  31  76 S6        30.38F                  
6HR MIN TEMP:  37; 6HR MAX TEMP:  39;                                

HARTFORD       MOCLDY    39  33  79 S3        30.39F                  
BRIDGEPORT     MOCLDY    45  38  76 S5        30.39F                  
DANBURY        CLOUDY    43  31  62 S6        30.37F                  
GROTON         MOCLDY    49  39  68 S13       30.41F                  
NEW HAVEN      MOCLDY    48  40  73 S8        30.39F                  
CHESTER        FAIR      41  37  87 S5        30.39F                  
MERIDEN        CLOUDY    34  29  82 CALM      30.39F                  
WILLIMANTIC    CLOUDY    31  30  96 CALM      30.41F                  
OXFORD         CLOUDY    39  32  76 SW3       30.38F                  
$$

MEZ002-015-021-024-NHZ003-005-008-011-012-014-VTZ005-008-030700-
NORTHERN NEW ENGLAND
  
CITY           SKY/WX    TMP DP  RH WIND       PRES   REMARKS
PORTLAND ME    PTCLDY    38  31  76 S8        30.39F                  
6HR MIN TEMP:  28; 6HR MAX TEMP:  39;                                

BANGOR ME      CLOUDY    32  27  81 CALM      30.39F                  
CONCORD NH     MOCLDY    34  27  75 SE7       30.37F WCI  28          
MANCHESTER NH  CLOUDY    38  29  70 S8        30.37F                  
NASHUA NH      PTCLDY    37  31  78 SE3       30.39F                  
PORTSMOUTH NH  CLOUDY    38  31  74 S7        30.39F                  
JAFFREY NH     MOCLDY    37  27  67 S7        30.34F WCI  32          
KEENE NH       CLOUDY    36  28  73 S7          N/A  WCI  30          
BURLINGTON VT  CLOUDY    42  22  44 S21G30    30.14F                  
MT. WASHINGTON CLOUDY    27   0  31 SW41G55     N/A  WCI   8          
$$

NYZ052-076-030700-
EASTERN NEW YORK
  
CITY           SKY/WX    TMP DP  RH WIND       PRES   REMARKS
ALBANY         MOCLDY    41  24  51 S17G25    30.26F                  
6HR MIN TEMP:  40; 6HR MAX TEMP:  41; 6HR PCP: TRACE;                

NEW YORK CITY  CLOUDY    45  33  63 SE3       30.37F                  
6HR MIN TEMP:  42; 6HR MAX TEMP:  46;                                

$$
 
ANZALL-030700-
MARINE OBSERVATIONS
  
STATION/POSITION TIME  TEMP    WIND        PRES    VSBY  WAVE
                       AIR SEA DIR/SP/G                  HT/PER
                 (UTC) (F)     (DEG/KT/KT) (MB)    (MI)  (FT/S)
BOSTON BUOY      0550      51  210/ 10/ 12 1031.2S         2/10
BUZZARDS BAY     0500   49     200/ 17/ 18 1031.1F
NANTUCKET SOUND  0550   51     190/ 12/ 14 1030.8          2/ 3
MASS BAY-STELLWA 0404   46 50  180/ 14/ 16 1030.5F  1 7/8  2/ 3
ISLE OF SHOALS   0500   44     210/ 20/ 22 1029.7F
S OF BLOCK IS    0556      56                N/A           4/ 5
$$

......................KEY.........................
  SKY/WX - SKY CONDITION/PRESENT WEATHER
  TMP    - TEMPERATURE IN FAHRENHEIT
  DWPT   - DEWPOINT IN FAHRENHEIT
  RH     - RELATIVE HUMIDITY IN PERCENT
  WIND   - DIRECTION AND SPEED IN MPH
  PRES   - MEAN SEA LEVEL PRESSURE IN INCHES OF HG
  WCI    - WIND CHILL INDEX
  VSB    - VISIBILITY IN MILES
  HX     - HEAT INDEX
  TC     - TEMPERATURE IN CELSIUS
  VRB    - VARIABLE WIND DIRECTION
  N/A    - NOT AVAILABLE
  
      

Other recent Regional Weather Roundups

Thu Dec 8, 2:10pm

Thu Dec 8, 1:10pm

Thu Dec 8, 12:10pm

Thu Dec 8, 11:10am

Thu Dec 8, 10:10am

Thu Dec 8, 9:10am

Thu Dec 8, 8:10am

Thu Dec 8, 7:10am

Thu Dec 8, 6:10am

Thu Dec 8, 5:10am

Thu Dec 8, 4:10am

Thu Dec 8, 3:10am

Thu Dec 8, 2:10am

Thu Dec 8, 1:10am

Thu Dec 8, 12:10am

Wed Dec 7, 11:10pm

Wed Dec 7, 10:10pm

Wed Dec 7, 9:10pm

Wed Dec 7, 8:10pm

Wed Dec 7, 7:10pm

Wed Dec 7, 6:10pm

Wed Dec 7, 5:10pm

Wed Dec 7, 4:10pm

Wed Dec 7, 3:10pm

Wed Dec 7, 2:10pm

Wed Dec 7, 1:10pm

Wed Dec 7, 12:10pm

Wed Dec 7, 11:10am

Wed Dec 7, 10:10am

Wed Dec 7, 9:10am

Wed Dec 7, 8:10am

Wed Dec 7, 7:10am

Wed Dec 7, 6:10am

Wed Dec 7, 5:10am

Wed Dec 7, 4:10am

Wed Dec 7, 3:10am

Wed Dec 7, 2:10am

Wed Dec 7, 1:10am

Wed Dec 7, 12:10am

Tue Dec 6, 11:10pm

Tue Dec 6, 10:10pm

Tue Dec 6, 9:10pm

Tue Dec 6, 8:10pm

Tue Dec 6, 7:10pm

Tue Dec 6, 6:10pm

Tue Dec 6, 5:10pm

Tue Dec 6, 4:10pm

Tue Dec 6, 3:10pm

Tue Dec 6, 2:10pm

Tue Dec 6, 1:10pm

Tue Dec 6, 12:10pm

Tue Dec 6, 11:10am

Tue Dec 6, 10:10am

Tue Dec 6, 9:10am

Tue Dec 6, 8:10am

Tue Dec 6, 7:10am

Tue Dec 6, 6:10am

Tue Dec 6, 5:10am

Tue Dec 6, 4:10am

Tue Dec 6, 3:10am

Tue Dec 6, 2:10am

Tue Dec 6, 1:10am

Tue Dec 6, 12:10am

Mon Dec 5, 11:10pm

Mon Dec 5, 10:10pm

Mon Dec 5, 9:10pm

Mon Dec 5, 8:10pm

Mon Dec 5, 7:10pm

Mon Dec 5, 6:10pm

Mon Dec 5, 5:10pm

Mon Dec 5, 4:10pm

Mon Dec 5, 3:10pm

Mon Dec 5, 2:10pm

Mon Dec 5, 1:10pm

Mon Dec 5, 12:10pm

Mon Dec 5, 11:10am

Mon Dec 5, 10:10am

Mon Dec 5, 9:10am

Mon Dec 5, 8:10am

Mon Dec 5, 7:10am

Mon Dec 5, 6:10am

Mon Dec 5, 5:10am

Mon Dec 5, 4:10am

Mon Dec 5, 3:10am

Mon Dec 5, 2:10am

Mon Dec 5, 1:10am

Mon Dec 5, 12:10am

Sun Dec 4, 11:10pm

Sun Dec 4, 10:10pm

Sun Dec 4, 9:10pm

Sun Dec 4, 8:10pm

Sun Dec 4, 7:10pm

Sun Dec 4, 6:10pm

Sun Dec 4, 5:10pm

Sun Dec 4, 4:10pm

Sun Dec 4, 3:10pm

Sun Dec 4, 2:10pm

Sun Dec 4, 1:10pm

Sun Dec 4, 12:10pm

Sun Dec 4, 11:10am

Sun Dec 4, 10:10am

Sun Dec 4, 9:10am

Sun Dec 4, 8:10am

Sun Dec 4, 7:10am

Sun Dec 4, 6:10am

Sun Dec 4, 5:10am

Sun Dec 4, 4:10am

Sun Dec 4, 3:10am

Sun Dec 4, 2:10am

Sun Dec 4, 1:10am

Sun Dec 4, 12:10am

Sat Dec 3, 11:10pm

Sat Dec 3, 10:10pm

Sat Dec 3, 9:10pm

Sat Dec 3, 8:10pm

Sat Dec 3, 7:10pm

Sat Dec 3, 6:10pm

Sat Dec 3, 5:10pm

Sat Dec 3, 4:10pm

Sat Dec 3, 3:10pm

Sat Dec 3, 2:10pm

Sat Dec 3, 1:10pm

Sat Dec 3, 12:10pm

Sat Dec 3, 11:10am

Sat Dec 3, 10:10am

Sat Dec 3, 9:10am

Sat Dec 3, 8:10am

Sat Dec 3, 7:10am

Sat Dec 3, 6:10am

Sat Dec 3, 5:10am

Sat Dec 3, 4:10am

Sat Dec 3, 3:10am

Sat Dec 3, 2:10am

Sat Dec 3, 12:10am

Fri Dec 2, 11:10pm

Fri Dec 2, 10:10pm

Fri Dec 2, 9:10pm

Fri Dec 2, 8:10pm

Fri Dec 2, 7:10pm

Fri Dec 2, 6:10pm

Fri Dec 2, 5:10pm

Fri Dec 2, 4:10pm

Fri Dec 2, 3:10pm

Fri Dec 2, 2:10pm

Fri Dec 2, 1:10pm

Fri Dec 2, 12:10pm

Fri Dec 2, 11:10am

Fri Dec 2, 10:10am

Fri Dec 2, 9:10am

Fri Dec 2, 8:10am

Fri Dec 2, 7:10am

Fri Dec 2, 6:10am

Fri Dec 2, 5:10am

Fri Dec 2, 4:10am

Fri Dec 2, 3:10am

Fri Dec 2, 2:10am

Fri Dec 2, 1:10am

Fri Dec 2, 12:10am

Thu Dec 1, 11:10pm

Thu Dec 1, 10:10pm

Thu Dec 1, 9:10pm

Thu Dec 1, 8:10pm

Thu Dec 1, 7:10pm

Thu Dec 1, 6:10pm

Thu Dec 1, 5:10pm

Thu Dec 1, 4:10pm

Thu Dec 1, 3:10pm

Meta data:

ID: 63ba8231-6de1-459b-95eb-2a993517a2dc
Link: https://api.weather.gov/products/63ba8231-6de1-459b-95eb-2a993517a2dc